STARLINK-31325, 59165

Orbit data source: Space-Track

STARLINK-31325, 59165 is a payload satellite owned by SpaceX/Seattle (US) in LEO that was launched on Mon, 04 Mar 2024 UTC via an FALCON 9 launch vehicle from the Air Force Eastern Test Range (AFETR). Payload-class satellites include a variety of spacecraft equipped with specific instruments for various scientific and technological missions. These include communications satellites like Starlink; space stations such as the ISS; scientific satellites like the Hubble; Earth observation satellites from companies like Planet Labs, Umbra, and HawkEye 360; GPS; miniature CubeSats for education and research; and military/defense satellites.

Loading next visibility...
Identifier
59165, 2024-044P
Orbit
LEO
Country
Flag of USUS
Related business
Manufacturer
SpaceX/Seattle
Mission
Operational Commercial Communications
Bus & Motor
STARLINK V2M, Unknown motor
Mass
730 kg wet, ~700 kg dry
Launch date (UTC)
2024-03-04 (2 years ago)
Launch vehicle
FALCON 9
Launch site
Air Force Eastern Test Range (AFETR)
Object type
Payload
Rocket body
Debris
Shape & HBR
Box + 2 Pan, 14.5 m
Radar Cross Section
33.884 m², Large (>1 m²)

Expand to show TLE details & history
Last TLE update: 15 hours ago

TLE from 15 hours ago
0 STARLINK-31325
1 59165U 24044P   25250.19365871 -.00000401  00000-0 -50511-5 0  9998
2 59165  43.0050  63.1941 0001001 282.9113  77.1627 15.27574651 85503
Epoch: 2025-09-07T04:38Z
TLE epoch observation values (Epoch: 2025-09-07T04:38:52.112Z)
Latitude
-0.00001°
Longitude
6.96031°
Altitude
482.689 km
Speed
7.626 km/s
True Right ascension
04h 12m 46s
True Declination
0° 00' 00"
Sunlit
Object was in daylight at epoch
Visualization orbit readout
Latitude
Unknown
Longitude
Unknown
Altitude
Unknown
Speed
Unknown
Apparent Right ascension
Unknown
Apparent Declination
Unknown
Sunlit
N/A
Visualization observer readout
Local Sidereal Time
11:51:32
Azimuth
Unknown
Elevation
Unknown
Doppler factor
Unknown
Orbital elements
Apogee altitude
485.696 km
Perigee altitude
484.322 km
Semi-major axis
6,863.146 km
Eccentricity
0.0001
Inclination
43.005°
RAAN
63.1941°
Arg. of periapsis
282.9113°
True anomaly
77.17388°
Mean anomaly
77.1627°
Eccentric anomaly
77.16829°
Mean motion
3.81732 °/min
Orbital period
94.31 mins
BSTAR
-0.0000050511
Loading maneuver chart data...
Computing Atmospheric mass density...
Loading historical data...
Loading historical data...
Loading historical data...
Loading historical data...
Loading historical data...
Loading historical data...
Loading historical data...

Documentation

Showing up to 5 results
|